Weather History for KCPK - December, 2012

Change the Weather History Date:

Saturday, December 22, 2012

  Actual Average (KORF) Record (KORF)
Temperature  
Mean Temperature 42 °F 42 °F  
Max Temperature 50 °F 50 °F 81 °F (2013)
Min Temperature 33 °F 35 °F 12 °F (1989)
Degree Days  
Heating Degree Days 22 23  
Month to date heating degree days 439  
Since 1 July heating degree days 969  
Cooling Degree Days 0 0  
Month to date cooling degree days 0  
Year to date cooling degree days 1628  
Moisture  
Dew Point 23 °F    
Average Humidity 52    
Maximum Humidity 70    
Minimum Humidity 32    
Precipitation  
Precipitation 0.00 in 0.11 in 1.13 in (1920)
Month to date precipitation 2.34  
Year to date precipitation 45.61  
Snow  
Snow 0.00 in 0.10 in 3.50 in (1935)
Month to date snowfall 0.6  
Since 1 July snowfall 0.6  
Snow Depth -    
Sea Level Pressure  
Sea Level Pressure 29.89 in    
Wind  
Wind Speed 12 mph (West)    
Max Wind Speed 25 mph    
Max Gust Speed 32 mph    
Visibility 10 miles    
Events      
T = Trace of Precipitation, MM = Missing Value Source: NWS Daily Summary

Daily Weather History Graph

Daily Weather History Graph

Search for Another Location

Airport or City:

Trip Planner

Search our weather history database for the weather conditions in past years. The results will help you decide how hot, cold, wet, or windy it might be!

Date:

Astronomy

Dec. 22, 2012 Rise Set
Actual Time 7:14 AM EST 4:53 PM EST
Civil Twilight 6:45 AM EST 5:22 PM EST
Nautical Twilight 6:13 AM EST 5:55 PM EST
Astronomical Twilight 5:41 AM EST 6:26 PM EST
Moon 1:05 PM EST (12/22) 2:02 AM EST (12/22)
Length of Visible Light 10h 36m
Length of Day
9h 39m
Waxing Gibbous, 73% of the Moon is Illuminated
Dec 22
Waxing Gibbous
Dec 28
Full
Jan 4
Last Quarter
Jan 11
New
Jan 18
First Quarter

Hourly Weather History & Observations

Time (EST) Temp. Windchill Dew Point Humidity Pressure Visibility Wind Dir Wind Speed Gust Speed Precip Events Conditions
12:15 AM 37.4 °F 30.3 °F 23.0 °F 56% 29.70 in 10.0 mi WSW 10.4 mph 16.1 mph N/A   Clear
12:35 AM 37.4 °F 30.3 °F 23.0 °F 56% 29.70 in 10.0 mi WSW 10.4 mph - N/A   Clear
12:55 AM 37.4 °F 29.3 °F 23.0 °F 56% 29.71 in 10.0 mi WSW 12.7 mph 23.0 mph N/A   Clear
1:15 AM 37.4 °F 28.9 °F 23.0 °F 56% 29.71 in 10.0 mi West 13.8 mph 17.3 mph N/A   Clear
1:35 AM 37.4 °F 29.3 °F 23.0 °F 56% 29.72 in 10.0 mi WSW 12.7 mph 19.6 mph N/A   Clear
1:55 AM 37.4 °F 29.3 °F 23.0 °F 56% 29.72 in 10.0 mi WSW 12.7 mph 19.6 mph N/A   Clear
2:15 AM 37.4 °F 29.3 °F 23.0 °F 56% 29.72 in 10.0 mi West 12.7 mph 18.4 mph N/A   Clear
2:35 AM 37.4 °F 29.8 °F 23.0 °F 56% 29.73 in 10.0 mi West 11.5 mph 18.4 mph N/A   Clear
2:55 AM 35.6 °F 28.0 °F 23.0 °F 60% 29.73 in 10.0 mi WSW 10.4 mph - N/A   Clear
3:15 AM 35.6 °F 26.6 °F 23.0 °F 60% 29.74 in 10.0 mi West 13.8 mph 23.0 mph N/A   Clear
3:35 AM 35.6 °F 27.1 °F 23.0 °F 60% 29.74 in 10.0 mi WSW 12.7 mph 18.4 mph N/A   Clear
4:15 AM 35.6 °F 27.1 °F 23.0 °F 60% 29.75 in 10.0 mi West 12.7 mph 23.0 mph N/A   Clear
4:35 AM 35.6 °F 27.1 °F 23.0 °F 60% 29.76 in 10.0 mi West 12.7 mph 20.7 mph N/A   Clear
4:55 AM 35.6 °F 27.5 °F 23.0 °F 60% 29.77 in 10.0 mi West 11.5 mph 21.9 mph N/A   Clear
5:15 AM 35.6 °F 27.5 °F 23.0 °F 60% 29.78 in 10.0 mi West 11.5 mph 19.6 mph N/A   Clear
5:35 AM 35.6 °F 28.0 °F 23.0 °F 60% 29.79 in 10.0 mi West 10.4 mph 18.4 mph N/A   Clear
5:55 AM 37.4 °F 28.5 °F 21.2 °F 52% 29.80 in 10.0 mi West 15.0 mph 19.6 mph N/A   Clear
6:15 AM 35.6 °F 26.6 °F 23.0 °F 60% 29.81 in 10.0 mi West 13.8 mph 20.7 mph N/A   Clear
6:35 AM 35.6 °F 27.1 °F 23.0 °F 60% 29.82 in 10.0 mi West 12.7 mph 18.4 mph N/A   Clear
6:55 AM 35.6 °F 27.5 °F 23.0 °F 60% 29.82 in 10.0 mi West 11.5 mph 19.6 mph N/A   Clear
7:15 AM 35.6 °F 27.5 °F 23.0 °F 60% 29.83 in 10.0 mi West 11.5 mph 17.3 mph N/A   Clear
7:35 AM 35.6 °F 28.0 °F 23.0 °F 60% 29.84 in 10.0 mi West 10.4 mph 16.1 mph N/A   Clear
7:55 AM 37.4 °F 29.3 °F 23.0 °F 56% 29.85 in 10.0 mi West 12.7 mph - N/A   Clear
8:15 AM 37.4 °F 30.8 °F 24.8 °F 60% 29.86 in 10.0 mi West 9.2 mph - N/A   Clear
8:35 AM 39.2 °F 31.6 °F 24.8 °F 56% 29.87 in 10.0 mi West 12.7 mph 20.7 mph N/A   Clear
8:55 AM 39.2 °F 31.2 °F 24.8 °F 56% 29.87 in 10.0 mi West 13.8 mph 20.7 mph N/A   Clear
9:15 AM 41.0 °F 35.8 °F 24.8 °F 53% 29.88 in 10.0 mi West 8.1 mph 23.0 mph N/A   Clear
9:35 AM 42.8 °F 35.8 °F 24.8 °F 49% 29.89 in 10.0 mi West 13.8 mph 27.6 mph N/A   Clear
9:55 AM 44.6 °F 38.1 °F 24.8 °F 46% 29.90 in 10.0 mi WNW 13.8 mph 19.6 mph N/A   Clear
10:15 AM 44.6 °F 37.2 °F 24.8 °F 46% 29.90 in 10.0 mi West 17.3 mph 25.3 mph N/A   Clear
10:35 AM 44.6 °F 37.8 °F 24.8 °F 46% 29.90 in 10.0 mi West 15.0 mph 32.2 mph N/A   Clear
10:55 AM 46.4 °F 38.3 °F 24.8 °F 43% 29.90 in 10.0 mi West 23.0 mph 28.8 mph N/A   Clear
11:15 AM 46.4 °F 41.1 °F 23.0 °F 40% 29.90 in 10.0 mi WNW 11.5 mph 28.8 mph N/A   Scattered Clouds
11:35 AM 46.4 °F 40.1 °F 23.0 °F 40% 29.89 in 10.0 mi WNW 15.0 mph 25.3 mph N/A   Clear
11:55 AM 46.4 °F 39.0 °F 21.2 °F 37% 29.89 in 10.0 mi WNW 19.6 mph 31.1 mph N/A   Clear
12:15 PM 48.2 °F - 23.0 °F 37% 29.89 in 10.0 mi WNW 18.4 mph 31.1 mph N/A   Clear
12:35 PM 48.2 °F - 21.2 °F 34% 29.89 in 10.0 mi West 25.3 mph 32.2 mph N/A   Clear
12:55 PM 48.2 °F - 21.2 °F 34% 29.89 in 10.0 mi WNW 21.9 mph 28.8 mph N/A   Clear
1:15 PM 48.2 °F - 23.0 °F 37% 29.89 in 10.0 mi West 18.4 mph 24.2 mph N/A   Clear
1:35 PM 50.0 °F - 23.0 °F 35% 29.89 in 10.0 mi West 17.3 mph 26.5 mph N/A   Clear
1:55 PM 48.2 °F - 23.0 °F 37% 29.88 in 10.0 mi West 17.3 mph 26.5 mph N/A   Clear
2:15 PM 50.0 °F - 21.2 °F 32% 29.89 in 10.0 mi West 17.3 mph 20.7 mph N/A   Clear
2:35 PM 50.0 °F - 23.0 °F 35% 29.90 in 10.0 mi West 13.8 mph 25.3 mph N/A   Clear
2:55 PM 50.0 °F - 21.2 °F 32% 29.90 in 10.0 mi West 13.8 mph 21.9 mph N/A   Clear
3:15 PM 50.0 °F - 21.2 °F 32% 29.90 in 10.0 mi West 18.4 mph 21.9 mph N/A   Clear
3:35 PM 50.0 °F - 21.2 °F 32% 29.91 in 10.0 mi West 15.0 mph - N/A   Clear
3:55 PM 48.2 °F - 21.2 °F 34% 29.92 in 10.0 mi West 10.4 mph 19.6 mph N/A   Clear
4:15 PM 48.2 °F - 21.2 °F 34% 29.93 in 10.0 mi West 13.8 mph - N/A   Clear
4:35 PM 46.4 °F 41.1 °F 21.2 °F 37% 29.94 in 10.0 mi West 11.5 mph - N/A   Clear
4:55 PM 44.6 °F 40.2 °F 23.0 °F 43% 29.95 in 10.0 mi West 8.1 mph - N/A   Clear
5:15 PM 41.0 °F 37.1 °F 24.8 °F 53% 29.97 in 10.0 mi West 5.8 mph - N/A   Clear
5:35 PM 42.8 °F 38.6 °F 24.8 °F 49% 29.98 in 10.0 mi West 6.9 mph - N/A   Clear
5:55 PM 41.0 °F 36.4 °F 24.8 °F 53% 29.99 in 10.0 mi West 6.9 mph - N/A   Clear
6:15 PM 41.0 °F 37.1 °F 24.8 °F 53% 29.99 in 10.0 mi WSW 5.8 mph - N/A   Clear
6:35 PM 39.2 °F 35.0 °F 24.8 °F 56% 30.01 in 10.0 mi SW 5.8 mph - N/A   Clear
6:55 PM 42.8 °F 38.6 °F 24.8 °F 49% 30.02 in 10.0 mi WSW 6.9 mph - N/A   Clear
7:15 PM 41.0 °F 37.1 °F 24.8 °F 53% 30.02 in 10.0 mi WSW 5.8 mph - N/A   Clear
7:35 PM 39.2 °F 34.2 °F 24.8 °F 56% 30.03 in 10.0 mi West 6.9 mph - N/A   Clear
7:55 PM 39.2 °F 34.2 °F 24.8 °F 56% 30.03 in 10.0 mi WSW 6.9 mph - N/A   Clear
8:15 PM 39.2 °F 37.0 °F 24.8 °F 56% 30.04 in 10.0 mi SSW 3.5 mph - N/A   Clear
8:35 PM 37.4 °F 32.8 °F 24.8 °F 60% 30.04 in 10.0 mi WSW 5.8 mph - N/A   Clear
8:55 PM 35.6 °F 31.7 °F 24.8 °F 65% 30.05 in 10.0 mi SSW 4.6 mph - N/A   Clear
9:15 PM 37.4 °F 32.8 °F 24.8 °F 60% 30.05 in 10.0 mi SW 5.8 mph - N/A   Clear
9:35 PM 35.6 °F 31.7 °F 24.8 °F 65% 30.05 in 10.0 mi WSW 4.6 mph - N/A   Clear
9:55 PM 35.6 °F 29.9 °F 24.8 °F 65% 30.06 in 10.0 mi West 6.9 mph - N/A   Clear
10:15 PM 37.4 °F 32.8 °F 24.8 °F 60% 30.06 in 10.0 mi West 5.8 mph - N/A   Clear
10:35 PM 37.4 °F 32.8 °F 24.8 °F 60% 30.06 in 10.0 mi West 5.8 mph - N/A   Clear
10:55 PM 35.6 °F - 23.0 °F 60% 30.05 in 10.0 mi Calm Calm - N/A   Clear
11:15 PM 35.6 °F - 24.8 °F 65% 30.06 in 10.0 mi Calm Calm - N/A   Clear
11:35 PM 35.6 °F - 23.0 °F 60% 30.06 in 10.0 mi Calm Calm - N/A   Clear
11:55 PM 33.8 °F - 24.8 °F 70% 30.06 in 10.0 mi Calm Calm - N/A   Clear